This demonstration page uses our WeatherBlox Daily Observations layout. Learn more.

Left ArrowRight Arrow

Hourly Observations for July 27, 2017

Temp ( °F °C ) Dew Point ( °F °C ) Humidity (%) Winds ( mph kmh ) Pressure ( in mb ) Visibility ( mi km ) Precip ( " mm )
12:53 am 00:53 Clear 83 28.3 55 12.8 38 38 SE 13 20 29.87 1012 10 16 0.00 0.00
1:53 am 01:53 Clear 80 26.7 56 13.3 44 44 SE 8 13 29.87 1011 10 16 0.00 0.00
2:53 am 02:53 Clear 77 25 56 13.3 48 48 ESE 8 13 29.87 1012 10 16 0.00 0.00
3:53 am 03:53 Clear 77 25 57 13.9 50 50 SE 12 19 29.86 1011 10 16 0.00 0.00
4:53 am 04:53 Clear 77 25 59 15 54 54 SE 12 19 29.86 1011 10 16 0.00 0.00
5:53 am 05:53 Clear 76 24.4 62 16.7 62 62 SE 12 19 29.87 1011 10 16 0.00 0.00
6:53 am 06:53 Clear 74 23.3 63 17.2 69 69 SE 13 20 29.88 1012 10 16 0.00 0.00
7:53 am 07:53 Sunny 74 23.3 63 17.2 69 69 SE 12 19 29.90 1012 10 16 0.00 0.00
8:53 am 08:53 Sunny 76 24.4 62 16.7 62 62 SE 13 20 29.91 1013 10 16 0.00 0.00
9:53 am 09:53 Sunny 82 27.8 62 16.7 51 51 SE 13 20 29.91 1013 10 16 0.00 0.00
10:53 am 10:53 Sunny 86 30 61 16.1 43 43 ESE 7 11 29.91 1013 10 16 0.00 0.00
11:53 am 11:53 Sunny 89 31.7 60 15.6 38 38 ESE 8 13 29.91 1013 10 16 0.00 0.00
12:53 pm 12:53 Sunny 94 34.4 58 14.4 30 30 ENE 9 15 29.88 1012 10 16 0.00 0.00
1:53 pm 13:53 Sunny 98 36.7 56 13.3 24 24 E 10 17 29.86 1011 10 16 0.00 0.00
2:53 pm 14:53 Sunny 98 36.7 54 12.2 23 23 ENE 10 17 29.84 1011 10 16 0.00 0.00
3:53 pm 15:53 Mostly Sunny 100 37.8 51 10.6 19 19 E 15 24 29.81 1010 10 16 0.00 0.00
4:53 pm 16:53 Sunny 100 37.8 52 11.1 20 20 ESE 14 22 29.78 1009 10 16 0.00 0.00
5:53 pm 17:53 Mostly Sunny 98 36.7 52 11.1 21 21 ESE 15 24 29.77 1008 10 16 0.00 0.00
6:53 pm 18:53 Sunny 97 36.1 52 11.1 22 22 ESE 17 28 29.76 1008 10 16 0.00 0.00
7:53 pm 19:53 Sunny 95 35 51 10.6 23 23 SSE 18 30 29.76 1008 10 16 0.00 0.00
8:53 pm 20:53 Clear 91 32.8 53 11.7 27 27 SE 14 22 29.78 1009 10 16 0.00 0.00
9:53 pm 21:53 Clear 88 31.1 53 11.7 30 30 SE 12 19 29.82 1010 10 16 0.00 0.00
10:53 pm 22:53 Clear 86 30 54 12.2 33 33 SE 12 19 29.84 1011 10 16 0.00 0.00
11:53 pm 23:53 Clear 83 28.3 55 12.8 38 38 SE 9 15 29.85 1011 10 16 0.00 0.00

Powered by AerisWeather